User: anonymous   Login
Location: Shenandoah County Park
(38.9356°N, 78.4524°W)
Time: 10:57:45
(UTC-04:00)
Language:

BEESAT 3 - Orbit

View from above orbital plane
View from above orbital plane
View from above satellite
View from above satellite

Ground track
Ground track

The orbit data is extracted from the following two-line orbital elements,

1 39134U 13015E   23080.27287154  .00086570  00000-0  17282-2 0  9997
2 39134  64.8540 225.3748 0019990 253.0938 106.8010 15.46130798549703
Epoch (UTC): 21 March 2023 06:32:56
Eccentricity: 0.0019990
inclination: 64.8540°
perigee height: 414 km
apogee height: 441 km
right ascension of ascending node: 225.3748°
argument of perigee: 253.0938°
revolutions per day: 15.46130798
mean anomaly at epoch: 106.8010°
orbit number at epoch: 54970

The dashed part of the orbit path shows where the satellite is in the earth's shadow,  

DLR